Location: Vinland
(47.7731°N, 122.6974°W)
Time: 16:48:43
(UTC+00:00)

Courier 1B Rocket - Visible Passes

Search period start: 31 March 2023 00:00
Search period end: 10 April 2023 00:00
Orbit: 920 x 1202 km, 28.2° (Epoch: 30 March)

Date Brightness Start Highest point End Pass type
(mag) Time Alt. Az. Time Alt. Az. Time Alt. Az.
31 Mar 7.0 03:23:42 10° SSW 03:27:20 14° S 03:30:50 10° SSE visible
31 Mar 7.1 05:17:01 10° SSW 05:18:34 12° SSW 05:18:34 12° SSW visible
01 Apr 6.9 04:15:19 10° SW 04:18:44 14° S 04:21:18 11° SSE visible
02 Apr 7.0 03:14:03 10° SW 03:17:59 15° S 03:21:47 10° SSE visible
02 Apr 7.2 05:09:05 10° SSW 05:10:04 10° SSW 05:10:24 10° SSW visible
03 Apr 7.1 04:06:20 10° SW 04:09:22 13° SSW 04:12:20 10° SSE visible
05 Apr 7.3 03:57:58 10° SW 03:59:58 11° SSW 04:01:55 10° S visible
